Grand Marais, MN

10:05 PM CDT on July 21, 2017 (GMT -0500)
Grand Marais

Weather History for KGNA - July, 2012

Change the Weather History Date:

Sunday, July 1, 2012

  Actual Average (KCKC) Record (KCKC)
Temperature  
Mean Temperature 62 °F -  
Max Temperature 75 °F 68 °F 82 °F (2002)
Min Temperature 51 °F 48 °F 35 °F (2003)
Degree Days  
Heating Degree Days 3    
Growing Degree Days 12 (Base 50)    
Moisture  
Dew Point 56 °F    
Average Humidity 74    
Maximum Humidity 90    
Minimum Humidity 51    
Precipitation  
Precipitation 0.00 in - - ()
Sea Level Pressure  
Sea Level Pressure 29.91 in    
Wind  
Wind Speed 4 mph (WSW)    
Max Wind Speed 10 mph    
Max Gust Speed 20 mph    
Averages and records for this station are not official NWS values.
T = Trace of Precipitation, MM = Missing Value Source: NWS Daily Summary

Daily Weather History Graph

Daily Weather History Graph

Search for Another Location

Airport or City:

Trip Planner

Search our weather history database for the weather conditions in past years. The results will help you decide how hot, cold, wet, or windy it might be!

Date:

Astronomy

Jul. 01, 2012 Rise Set
Actual Time 5:07 AM CDT 9:03 PM CDT
Civil Twilight 4:26 AM CDT 9:43 PM CDT
Nautical Twilight 3:30 AM CDT 10:39 PM CDT
Astronomical Twilight 2:02 AM CDT 12:06 AM CDT
Moon 7:04 PM CDT (7/1) 2:57 AM CDT (7/1)
Length of Visible Light 17h 16m
Length of Day
15h 55m
Waxing Gibbous, 94% of the Moon is Illuminated
Jul 1
Waxing Gibbous
Jul 3
Full
Jul 10
Last Quarter
Jul 18
New
Jul 26
First Quarter

Hourly Weather History & Observations

Time (CDT) Temp. Dew Point Humidity Pressure Visibility Wind Dir Wind Speed Gust Speed Precip Events Conditions
12:56 AM 72.0 °F 53.1 °F 51% 29.84 in - North 10.4 mph 19.6 mph N/A   Unknown
1:56 AM 73.9 °F 55.0 °F 52% 29.83 in - Variable 6.9 mph - N/A   Unknown
2:56 AM 60.1 °F 53.1 °F 78% 29.86 in - Calm Calm - N/A   Unknown
3:56 AM 55.0 °F 51.1 °F 86% 29.86 in - SW 5.8 mph - N/A   Unknown
4:56 AM 55.0 °F 51.1 °F 86% 29.87 in - WSW 3.5 mph - N/A   Unknown
5:56 AM 51.1 °F 48.0 °F 89% 29.91 in - Variable 3.5 mph - N/A   Unknown
6:56 AM 60.1 °F 54.0 °F 80% 29.93 in - Calm Calm - N/A   Unknown
7:56 AM 60.1 °F 55.0 °F 83% 29.95 in - Calm Calm - N/A   Unknown
8:56 AM 59.0 °F 54.0 °F 83% 29.95 in - SW 3.5 mph - N/A   Unknown
9:56 AM 64.0 °F 54.0 °F 70% 29.94 in - Calm Calm - N/A   Unknown
10:56 AM 69.1 °F 55.9 °F 63% 29.93 in - Calm Calm - N/A   Unknown
11:56 AM 64.9 °F 57.9 °F 78% 29.93 in - Calm Calm - N/A   Unknown
12:56 PM 70.0 °F 57.9 °F 65% 29.91 in - Calm Calm - N/A   Unknown
1:56 PM 69.1 °F 60.1 °F 73% 29.91 in - Calm Calm - N/A   Unknown
2:56 PM 69.1 °F 60.1 °F 73% 29.92 in - Calm Calm - N/A   Unknown
3:56 PM 68.0 °F 59.0 °F 73% 29.93 in - Calm Calm - N/A   Unknown
4:56 PM 70.0 °F 59.0 °F 68% 29.92 in - Calm Calm - N/A   Unknown
5:56 PM 70.0 °F 61.0 °F 73% 29.90 in - Calm Calm - N/A   Unknown
6:56 PM 68.0 °F 59.0 °F 73% 29.90 in - Calm Calm - N/A   Unknown
7:56 PM 69.1 °F 57.9 °F 68% 29.90 in - Calm Calm - N/A   Unknown
8:56 PM 66.9 °F 59.0 °F 76% 29.91 in - ENE 3.5 mph - N/A   Unknown
9:56 PM 64.9 °F 57.9 °F 78% 29.91 in - Calm Calm - N/A   Unknown
10:56 PM 64.0 °F 57.0 °F 78% 29.90 in - Calm Calm - N/A   Unknown
11:56 PM 60.1 °F 57.0 °F 90% 29.94 in - SW 5.8 mph - N/A   Unknown